Weather Roundup
Issued by NWS

Home | Current Version | Previous Version | Graphics & Text | Print | Product List | Glossary Off
Versions: 1 2 3 4 5 6 7 8 9 10 11 12 13 14 15 16 17 18 19 20 21 22 23 24 25 26 27 28 29 30 31 32 33 34 35 36 37 38 39 40 41 42 43 44 45 46 47 48 49 50

000
NZUS93 KARX 270159
HRRWXR

CURRENT HOURLY OBSERVATIONS ACROSS
MUCH OF THE UPPER MISSISSIPPI VALLEY
NATIONAL WEATHER SERVICE LA CROSSE WI
800 PM CST MON JAN 26 2015


...SOUTHEAST MINNESOTA...


CITY           SKY/WX    TMP DP  RH WIND       PRES   REMARKS
ROCHESTER      MOCLDY    35  31  85 NW14      29.85R WCI  26
ROCHESTER/MAYO MOCLDY    37  32  80 W9        29.85S WCI  31
WINONA         CLOUDY    30  28  93 CALM      29.87S
AUSTIN         CLOUDY    36  32  87 NW13      29.87R WCI  27
ALBERT LEA     CLOUDY    37  32  81 NW10G18   29.90R WCI  30
DODGE CENTER   CLOUDY    37  34  87 NW13      29.86R WCI  29
PRESTON        CLOUDY    36  32  87 NW12      29.85R WCI  27
OWATONNA       PTCLDY    36  30  80 NW15      29.89R WCI  26
FARIBAULT      CLOUDY    37  30  75 NW10G16   29.90R WCI  30
$$

...ELSEWHERE IN MINNESOTA...


CITY           SKY/WX    TMP DP  RH WIND       PRES   REMARKS
MINNEAPOLIS    CLOUDY    38  29  70 NW13      29.90R WCI  30
INTNL FALLS    CLOUDY    26  21  81 NW6       29.92R WCI  19
DULUTH         CLOUDY    29  24  82 N12       29.87R WCI  19
RED WING       CLOUDY    39  32  75 NW3       29.86R
REDWOOD FALLS  CLEAR     37  31  78 NW10      29.95R WCI  30
MANKATO        CLOUDY    37  30  75 NW14      29.92R WCI  29
WORTHINGTON    CLOUDY    34  30  86 NW13      29.97R WCI  25
FAIRMONT       CLOUDY    37  30  75 NW13      29.94R WCI  29
$$

...SOUTHWEST WISCONSIN...


CITY           SKY/WX    TMP DP  RH WIND       PRES   REMARKS
LA CROSSE      CLOUDY    30  26  85 S3        29.86R
PRAIRIE DU CHI CLOUDY    29  25  86 CALM      29.87R FOG
BOSCOBEL       CLOUDY    27  24  89 CALM      29.88R FOG
LONE ROCK      NOT AVBL
PLATTEVILLE    CLOUDY    26  25  96 CALM      29.85S
FORT MC COY    CLOUDY    27  26  99 CALM      29.87R
VIROQUA        CLOUDY    26  26 100 CALM      29.83R
WIS DELLS      NOT AVBL
$$

...ELSEWHERE IN WISCONSIN...


CITY           SKY/WX    TMP DP  RH WIND       PRES   REMARKS
MILWAUKEE      LGT SNOW  25  21  85 SE6       29.90S WCI  18
MADISON        LGT SNOW  24  22  91 S6        29.87R FOG     WCI  17
GREEN BAY      LGT SNOW  25  22  88 CALM      29.91R FOG
EAU CLAIRE     CLOUDY    27  25  93 CALM      29.86R
BLACK RVR FLS  CLOUDY    27  27 100 CALM      29.86R FOG
MEDFORD        CLOUDY    20  19  92 CALM      29.83R
WAUSAU         LGT SNOW  21  19  92 SE3       29.84R FOG
WIS RAPIDS     LGT SNOW  23  20  88 CALM      29.87R FOG
MARSHFIELD     CLOUDY    23  21  92 CALM      29.85R
RICE LAKE      CLOUDY    27  26  94 CALM      29.86R FOG
$$

...NORTHEAST IOWA...


CITY           SKY/WX    TMP DP  RH WIND       PRES   REMARKS
DECORAH        CLOUDY    37  34  87 CALM      29.84R
MASON CITY     CLOUDY    37  32  82 NW17      29.92R WCI  27
CHARLES CITY   CLOUDY    39  37  93 NW17G23   29.87S WCI  30
OELWEIN        CLOUDY    37  36  93 NW9       29.86S WCI  31
$$

...ELSEWHERE IN IOWA...


CITY           SKY/WX    TMP DP  RH WIND       PRES   REMARKS
DES MOINES     MOCLDY    45  36  70 NW9       29.95R
IOWA CITY      CLOUDY    41  36  82 NW10      29.89R
FORT DODGE     CLOUDY    37  32  81 NW5       29.95R WCI  34
$$

...NORTHERN ILLINOIS...


CITY           SKY/WX    TMP DP  RH WIND       PRES   REMARKS
CHICAGO-OHARE  FRZ DRZL  25  24  96 S5        29.90R FOG     WCI  19
CHICAGO-MIDWAY FRZ DRZL  28  24  85 S6        29.90F FOG     WCI  22
MOLINE         CLOUDY    32  30  92 CALM      29.86S FOG
ROCKFORD       FRZ DRZL  26  23  88 S5        29.90S FOG     WCI  20
PEORIA         CLOUDY    31  29  92 S5        29.89S FOG     WCI  26
$$

NOTE: "FAIR" INDICATES FEW OR NO CLOUDS BELOW 12,000 FEET WITH NO
SIGNIFICANT WEATHER AND/OR OBSTRUCTIONS TO VISIBILITY. WIND
SPEEDS ARE IN MILES-PER-HOUR.



USA.gov is the U.S. government's official web portal to all federal, state and local government web resources and services.